TimeCST,TemperatureF,Dew PointF,Humidity,Sea Level PressureIn,VisibilityMPH,Wind Direction,Wind SpeedMPH,Gust SpeedMPH,PrecipitationIn,Events,Conditions,WindDirDegrees,DateUTC
12:15 AM,55.4,35.6,47,29.63,10.0,WNW,23.0,28.8,N/A,,Clear,290,2013-01-29 06:15:00
12:35 AM,41.0,32.0,70,29.66,10.0,NW,17.3,25.3,N/A,,Clear,310,2013-01-29 06:35:00
12:55 AM,37.4,32.0,81,29.67,10.0,NW,20.7,26.5,N/A,,Scattered Clouds,320,2013-01-29 06:55:00
1:15 AM,37.4,33.8,87,29.67,10.0,NW,19.6,25.3,N/A,,Overcast,320,2013-01-29 07:15:00
1:35 AM,39.2,33.8,81,29.67,10.0,NNW,20.7,25.3,N/A,,Overcast,330,2013-01-29 07:35:00
1:55 AM,39.2,35.6,87,29.68,10.0,NNW,15.0,23.0,N/A,,Overcast,340,2013-01-29 07:55:00
2:15 AM,39.2,33.8,81,29.67,10.0,North,19.6,25.3,N/A,,Overcast,360,2013-01-29 08:15:00
2:35 AM,39.2,33.8,81,29.65,10.0,NNW,20.7,25.3,N/A,,Overcast,340,2013-01-29 08:35:00
2:55 AM,39.2,33.8,81,29.67,10.0,North,12.7,-,N/A,,Overcast,350,2013-01-29 08:55:00
3:15 AM,39.2,33.8,81,29.68,10.0,North,12.7,18.4,N/A,,Overcast,360,2013-01-29 09:15:00
3:35 AM,39.2,33.8,81,29.68,10.0,North,9.2,-,N/A,,Overcast,360,2013-01-29 09:35:00
3:55 AM,39.2,33.8,81,29.69,10.0,North,12.7,-,N/A,,Overcast,10,2013-01-29 09:55:00
4:15 AM,39.2,33.8,81,29.68,10.0,North,12.7,-,N/A,,Overcast,10,2013-01-29 10:15:00
4:35 AM,37.4,33.8,87,29.68,10.0,North,11.5,-,N/A,,Overcast,360,2013-01-29 10:35:00
4:55 AM,37.4,33.8,87,29.69,10.0,North,11.5,-,N/A,,Overcast,350,2013-01-29 10:55:00
5:15 AM,37.4,32.0,81,29.70,10.0,North,13.8,-,N/A,,Overcast,350,2013-01-29 11:15:00
5:35 AM,37.4,32.0,81,29.71,10.0,NNW,11.5,-,N/A,,Overcast,340,2013-01-29 11:35:00
5:55 AM,35.6,32.0,87,29.70,8.0,North,8.1,-,N/A,,Overcast,360,2013-01-29 11:55:00
6:15 AM,35.6,32.0,87,29.69,7.0,NNW,11.5,-,N/A,,Overcast,340,2013-01-29 12:15:00
6:35 AM,35.6,30.2,81,29.69,7.0,NNW,10.4,-,N/A,,Overcast,330,2013-01-29 12:35:00
6:55 AM,35.6,30.2,81,29.68,9.0,NNW,9.2,-,N/A,,Overcast,340,2013-01-29 12:55:00
7:15 AM,35.6,30.2,81,29.68,10.0,NE,9.2,-,N/A,,Overcast,40,2013-01-29 13:15:00
7:35 AM,35.6,30.2,81,29.66,9.0,NNE,12.7,-,N/A,,Overcast,30,2013-01-29 13:35:00
7:55 AM,35.6,30.2,81,29.64,8.0,NNE,12.7,-,N/A,,Overcast,20,2013-01-29 13:55:00
8:15 AM,33.8,30.2,87,29.64,9.0,North,11.5,-,N/A,,Overcast,10,2013-01-29 14:15:00
8:35 AM,33.8,30.2,87,29.66,10.0,NNW,11.5,-,N/A,,Overcast,340,2013-01-29 14:35:00
8:55 AM,35.6,28.4,75,29.66,10.0,North,13.8,-,N/A,,Overcast,350,2013-01-29 14:55:00
9:15 AM,35.6,28.4,75,29.66,10.0,NNW,15.0,-,N/A,,Overcast,330,2013-01-29 15:15:00
9:35 AM,35.6,28.4,75,29.65,10.0,NNW,15.0,20.7,N/A,,Overcast,340,2013-01-29 15:35:00
9:55 AM,35.6,28.4,75,29.66,10.0,NNW,16.1,19.6,N/A,,Overcast,340,2013-01-29 15:55:00
10:15 AM,35.6,28.4,75,29.66,10.0,North,15.0,21.9,N/A,,Overcast,360,2013-01-29 16:15:00
10:35 AM,35.6,28.4,75,29.64,10.0,North,18.4,24.2,N/A,,Overcast,10,2013-01-29 16:35:00
10:55 AM,35.6,28.4,75,29.65,10.0,North,17.3,24.2,N/A,,Overcast,360,2013-01-29 16:55:00
11:15 AM,35.6,28.4,75,29.65,10.0,NNE,18.4,-,N/A,,Overcast,20,2013-01-29 17:15:00
11:35 AM,35.6,28.4,75,29.65,10.0,NNE,13.8,-,N/A,,Overcast,20,2013-01-29 17:35:00
11:55 AM,37.4,28.4,70,29.65,10.0,NNE,15.0,-,N/A,,Overcast,20,2013-01-29 17:55:00
12:15 PM,35.6,28.4,75,29.65,10.0,NNE,16.1,-,N/A,,Overcast,20,2013-01-29 18:15:00
12:35 PM,37.4,28.4,70,29.61,10.0,NNE,18.4,21.9,N/A,,Overcast,20,2013-01-29 18:35:00
12:55 PM,37.4,26.6,65,29.62,10.0,North,20.7,24.2,N/A,,Overcast,10,2013-01-29 18:55:00
1:15 PM,35.6,28.4,75,29.61,10.0,North,15.0,25.3,N/A,,Overcast,10,2013-01-29 19:15:00
1:35 PM,35.6,26.6,70,29.57,10.0,North,21.9,-,N/A,,Overcast,360,2013-01-29 19:35:00
1:55 PM,35.6,28.4,75,29.56,10.0,North,21.9,28.8,N/A,,Overcast,360,2013-01-29 19:55:00
2:15 PM,35.6,26.6,70,29.58,10.0,NNE,21.9,25.3,N/A,,Overcast,20,2013-01-29 20:15:00
2:35 PM,35.6,28.4,75,29.60,10.0,North,17.3,20.7,N/A,,Overcast,360,2013-01-29 20:35:00
2:55 PM,35.6,26.6,70,29.62,10.0,North,11.5,-,N/A,,Overcast,360,2013-01-29 20:55:00
3:15 PM,35.6,28.4,75,29.56,10.0,North,16.1,-,N/A,,Overcast,10,2013-01-29 21:15:00
3:35 PM,35.6,28.4,75,29.57,9.0,North,18.4,-,N/A,,Overcast,10,2013-01-29 21:35:00
3:55 PM,35.6,28.4,75,29.58,10.0,North,15.0,21.9,N/A,,Overcast,10,2013-01-29 21:55:00
4:15 PM,35.6,28.4,75,29.59,10.0,North,11.5,18.4,N/A,,Overcast,360,2013-01-29 22:15:00
4:35 PM,35.6,28.4,75,29.61,10.0,North,13.8,-,N/A,,Overcast,360,2013-01-29 22:35:00
4:55 PM,35.6,28.4,75,29.62,10.0,North,13.8,-,N/A,,Overcast,360,2013-01-29 22:55:00
5:15 PM,35.6,28.4,75,29.62,10.0,North,13.8,-,N/A,,Overcast,360,2013-01-29 23:15:00
5:35 PM,33.8,28.4,81,29.62,10.0,North,11.5,-,N/A,,Overcast,350,2013-01-29 23:35:00
5:55 PM,33.8,28.4,81,29.62,10.0,North,13.8,-,N/A,,Overcast,350,2013-01-29 23:55:00
6:15 PM,33.8,28.4,81,29.62,5.0,North,12.7,-,N/A,,Overcast,350,2013-01-30 00:15:00
6:35 PM,33.8,28.4,81,29.63,4.0,NNW,11.5,-,N/A,,Overcast,340,2013-01-30 00:35:00
6:55 PM,33.8,28.4,81,29.63,6.0,North,13.8,-,N/A,,Overcast,350,2013-01-30 00:55:00
7:15 PM,33.8,28.4,81,29.62,5.0,NNW,15.0,-,N/A,,Overcast,340,2013-01-30 01:15:00
7:35 PM,33.8,28.4,81,29.63,5.0,NNW,15.0,-,N/A,,Overcast,340,2013-01-30 01:35:00
7:55 PM,33.8,28.4,81,29.66,3.0,North,15.0,20.7,N/A,,Overcast,350,2013-01-30 01:55:00
8:15 PM,32.0,28.4,87,29.66,2.5,NNW,11.5,-,N/A,,Overcast,340,2013-01-30 02:15:00
8:55 PM,32.0,28.4,87,29.66,2.5,NNW,19.6,24.2,N/A,,Overcast,340,2013-01-30 02:55:00
9:15 PM,32.0,28.4,87,29.67,2.0,NNW,21.9,-,N/A,,Overcast,340,2013-01-30 03:15:00
9:35 PM,32.0,28.4,87,29.68,2.5,NNW,20.7,26.5,N/A,,Overcast,340,2013-01-30 03:35:00
9:55 PM,30.2,28.4,93,29.68,2.0,NNW,24.2,32.2,N/A,,Overcast,340,2013-01-30 03:55:00
10:15 PM,30.2,26.6,86,29.69,1.8,NNW,19.6,25.3,N/A,,Overcast,340,2013-01-30 04:15:00
10:35 PM,30.2,28.4,93,29.69,1.8,NNW,19.6,24.2,N/A,,Overcast,340,2013-01-30 04:35:00
10:55 PM,30.2,28.4,93,29.70,1.0,North,25.3,28.8,N/A,,Overcast,350,2013-01-30 04:55:00
11:15 PM,30.2,26.6,86,29.70,1.0,North,23.0,29.9,N/A,,Overcast,360,2013-01-30 05:15:00
11:35 PM,30.2,26.6,86,29.71,1.5,North,13.8,-,N/A,,Overcast,350,2013-01-30 05:35:00
11:55 PM,30.2,26.6,86,29.71,2.5,North,18.4,-,N/A,,Overcast,350,2013-01-30 05:55:00